Weather History for KLRJ - February, 2013

Change the Weather History Date:

Wednesday, February 6, 2013

  Actual Average Record
Temperature  
Mean Temperature 35 °F -  
Max Temperature 44 °F 27 °F 53 °F (1991)
Min Temperature 26 °F 6 °F -18 °F (1978)
Degree Days  
Heating Degree Days 30    
Moisture  
Dew Point 29 °F    
Average Humidity 77    
Maximum Humidity 93    
Minimum Humidity 57    
Precipitation  
Precipitation 0.00 in - - ()
Sea Level Pressure  
Sea Level Pressure 29.91 in    
Wind  
Wind Speed 7 mph (South)    
Max Wind Speed 26 mph    
Max Gust Speed 32 mph    
Visibility 10 miles    
Events      
Averages and records for this station are not official NWS values.
T = Trace of Precipitation, MM = Missing Value Source: NWS Daily Summary

Daily Weather History Graph

Daily Weather History Graph

Search for Another Location

Airport or City:

Trip Planner

Search our weather history database for the weather conditions in past years. The results will help you decide how hot, cold, wet, or windy it might be!

Date:

Astronomy

Feb. 06, 2013 Rise Set
Actual Time 7:33 AM CST 5:45 PM CST
Civil Twilight 7:03 AM CST 6:14 PM CST
Nautical Twilight 6:30 AM CST 6:48 PM CST
Astronomical Twilight 5:57 AM CST 7:21 PM CST
Moon 4:20 AM CST (2/6) 2:01 PM CST (2/6)
Length of Visible Light 11h 10m
Length of Day
10h 11m
Waning Crescent, 17% of the Moon is Illuminated
Feb 6
Waning Crescent
Feb 10
New
Feb 17
First Quarter
Feb 25
Full
Mar 4
Last Quarter

Hourly Weather History & Observations

Time (CST) Temp. Windchill Dew Point Humidity Pressure Visibility Wind Dir Wind Speed Gust Speed Precip Events Conditions
12:15 AM 26.6 °F 20.0 °F 24.8 °F 93% 30.04 in 10.0 mi SE 5.8 mph - N/A   Clear
12:35 AM 26.6 °F - 23.0 °F 86% 30.03 in 10.0 mi Calm Calm - N/A   Scattered Clouds
1:15 AM 26.6 °F - 24.8 °F 93% 30.04 in 7.0 mi Calm Calm - N/A   Mostly Cloudy
1:35 AM 26.6 °F - 24.8 °F 93% 30.04 in 10.0 mi Calm Calm - N/A   Mostly Cloudy
1:55 AM 28.4 °F 24.6 °F 24.8 °F 86% 30.05 in 10.0 mi South 3.5 mph - N/A   Scattered Clouds
2:35 AM 28.4 °F 24.6 °F 24.8 °F 86% 30.03 in 10.0 mi SSE 3.5 mph - N/A   Clear
2:55 AM 28.4 °F - 24.8 °F 86% 30.03 in 10.0 mi Calm Calm - N/A   Clear
3:15 AM 28.4 °F 23.3 °F 24.8 °F 86% 30.02 in 10.0 mi South 4.6 mph - N/A   Clear
3:35 AM 28.4 °F 23.3 °F 24.8 °F 86% 30.01 in 10.0 mi SSE 4.6 mph - N/A   Clear
3:55 AM 28.4 °F 23.3 °F 24.8 °F 86% 29.99 in 10.0 mi SE 4.6 mph - N/A   Clear
4:15 AM 28.4 °F 20.4 °F 24.8 °F 86% 29.99 in 10.0 mi SSE 8.1 mph - N/A   Mostly Cloudy
4:35 AM 28.4 °F 22.2 °F 24.8 °F 86% 29.99 in 10.0 mi SSE 5.8 mph - N/A   Mostly Cloudy
4:55 AM 28.4 °F 19.7 °F 24.8 °F 86% 29.99 in 10.0 mi SSE 9.2 mph - N/A   Scattered Clouds
5:15 AM 28.4 °F 20.4 °F 24.8 °F 86% 29.98 in 10.0 mi SSE 8.1 mph - N/A   Scattered Clouds
5:35 AM 28.4 °F 22.2 °F 24.8 °F 86% 29.98 in 10.0 mi SSE 5.8 mph - N/A   Mostly Cloudy
5:55 AM 28.4 °F 21.2 °F 24.8 °F 86% 29.97 in 10.0 mi SE 6.9 mph - N/A   Overcast
6:15 AM 28.4 °F 20.4 °F 24.8 °F 86% 29.97 in 10.0 mi SE 8.1 mph - N/A   Mostly Cloudy
6:35 AM 30.2 °F 21.3 °F 26.6 °F 86% 29.96 in 10.0 mi SSE 10.4 mph - N/A   Scattered Clouds
6:55 AM 28.4 °F 19.7 °F 26.6 °F 93% 29.95 in 10.0 mi SSE 9.2 mph - N/A   Scattered Clouds
7:15 AM 30.2 °F 21.3 °F 26.6 °F 86% 29.94 in 10.0 mi SSE 10.4 mph 18.4 mph N/A   Clear
7:35 AM 28.4 °F 18.5 °F 24.8 °F 86% 29.94 in 10.0 mi SSE 11.5 mph - N/A   Clear
7:55 AM 30.2 °F 21.3 °F 26.6 °F 86% 29.93 in 10.0 mi SSE 10.4 mph - N/A   Clear
8:15 AM 30.2 °F 20.2 °F 26.6 °F 86% 29.92 in 10.0 mi South 12.7 mph 17.3 mph N/A   Clear
8:35 AM 30.2 °F 20.8 °F 26.6 °F 86% 29.92 in 10.0 mi South 11.5 mph 17.3 mph N/A   Clear
8:55 AM 32.0 °F 22.1 °F 26.6 °F 80% 29.91 in 10.0 mi SSE 13.8 mph - N/A   Clear
9:15 AM 33.8 °F 24.8 °F 28.4 °F 81% 29.91 in 10.0 mi South 12.7 mph 17.3 mph N/A   Clear
9:35 AM 35.6 °F 25.9 °F 28.4 °F 75% 29.90 in 10.0 mi South 16.1 mph - N/A   Clear
9:55 AM 37.4 °F 27.5 °F 28.4 °F 70% 29.89 in 10.0 mi South 18.4 mph - N/A   Clear
10:15 AM 39.2 °F 29.0 °F 28.4 °F 65% 29.88 in 10.0 mi South 21.9 mph 28.8 mph N/A   Clear
10:35 AM 39.2 °F 28.7 °F 28.4 °F 65% 29.87 in 10.0 mi South 23.0 mph 31.1 mph N/A   Clear
10:55 AM 39.2 °F 28.0 °F 28.4 °F 65% 29.87 in 10.0 mi South 26.5 mph 32.2 mph N/A   Clear
11:15 AM 39.2 °F 28.3 °F 28.4 °F 65% 29.87 in 10.0 mi South 25.3 mph 29.9 mph N/A   Clear
11:35 AM 39.2 °F 29.3 °F 28.4 °F 65% 29.87 in 10.0 mi South 20.7 mph 26.5 mph N/A   Scattered Clouds
11:55 AM 41.0 °F 32.8 °F 28.4 °F 61% 29.87 in 10.0 mi SSW 16.1 mph 25.3 mph N/A   Scattered Clouds
12:15 PM 39.2 °F 30.8 °F 28.4 °F 65% 29.86 in 10.0 mi SSW 15.0 mph 24.2 mph N/A   Clear
12:35 PM 39.2 °F 30.8 °F 28.4 °F 65% 29.85 in 10.0 mi SSW 15.0 mph - N/A   Clear
12:55 PM 41.0 °F 32.2 °F 28.4 °F 61% 29.83 in 10.0 mi SSW 18.4 mph - N/A   Clear
1:15 PM 42.8 °F 34.8 °F 30.2 °F 61% 29.82 in 10.0 mi South 17.3 mph 25.3 mph N/A   Scattered Clouds
1:35 PM 42.8 °F 35.8 °F 30.2 °F 61% 29.83 in 10.0 mi SSW 13.8 mph 21.9 mph N/A   Scattered Clouds
1:55 PM 42.8 °F 37.5 °F 30.2 °F 61% 29.84 in 10.0 mi SW 9.2 mph - N/A   Scattered Clouds
2:15 PM 42.8 °F 35.8 °F 30.2 °F 61% 29.82 in 10.0 mi SSW 13.8 mph 17.3 mph N/A   Scattered Clouds
2:35 PM 42.8 °F 37.0 °F 30.2 °F 61% 29.82 in 10.0 mi SSW 10.4 mph 17.3 mph N/A   Scattered Clouds
2:55 PM 42.8 °F 37.0 °F 30.2 °F 61% 29.81 in 10.0 mi SSW 10.4 mph - N/A   Scattered Clouds
3:15 PM 42.8 °F 36.6 °F 30.2 °F 61% 29.81 in 10.0 mi South 11.5 mph - N/A   Scattered Clouds
3:35 PM 44.6 °F 39.7 °F 30.2 °F 57% 29.81 in 10.0 mi South 9.2 mph - N/A   Scattered Clouds
3:55 PM 44.6 °F 39.7 °F 32.0 °F 61% 29.81 in 10.0 mi SSW 9.2 mph - N/A   Scattered Clouds
4:15 PM 44.6 °F 40.2 °F 32.0 °F 61% 29.81 in 10.0 mi SSW 8.1 mph - N/A   Clear
4:55 PM 42.8 °F - 32.0 °F 66% 29.84 in 10.0 mi Calm Calm - N/A   Clear
5:15 PM 42.8 °F 41.1 °F 33.8 °F 70% 29.84 in 10.0 mi South 3.5 mph - N/A   Clear
5:35 PM 42.8 °F 38.6 °F 33.8 °F 70% 29.84 in 10.0 mi South 6.9 mph - N/A   Clear
5:55 PM 42.8 °F 39.3 °F 33.8 °F 70% 29.85 in 10.0 mi South 5.8 mph - N/A   Clear
6:15 PM 41.0 °F 38.0 °F 33.8 °F 76% 29.85 in 10.0 mi South 4.6 mph - N/A   Clear
6:35 PM 39.2 °F - 32.0 °F 75% 29.86 in 10.0 mi Calm Calm - N/A   Mostly Cloudy
6:55 PM 39.2 °F - 32.0 °F 75% 29.87 in 10.0 mi Calm Calm - N/A   Scattered Clouds
7:15 PM 39.2 °F 35.9 °F 32.0 °F 75% 29.87 in 10.0 mi SSW 4.6 mph - N/A   Clear
7:35 PM 39.2 °F - 32.0 °F 75% 29.87 in 10.0 mi Calm Calm - N/A   Clear
7:55 PM 39.2 °F - 32.0 °F 75% 29.87 in 10.0 mi Calm Calm - N/A   Scattered Clouds
8:15 PM 37.4 °F - 32.0 °F 81% 29.88 in 10.0 mi Calm Calm - N/A   Scattered Clouds
8:35 PM 37.4 °F 34.9 °F 30.2 °F 75% 29.88 in 10.0 mi South 3.5 mph - N/A   Scattered Clouds
8:55 PM 37.4 °F - 30.2 °F 75% 29.88 in 10.0 mi Calm Calm - N/A   Scattered Clouds
9:15 PM 37.4 °F - 30.2 °F 75% 29.89 in 10.0 mi Calm Calm - N/A   Mostly Cloudy
9:35 PM 35.6 °F - 30.2 °F 81% 29.89 in 10.0 mi Calm Calm - N/A   Overcast
9:55 PM 35.6 °F - 30.2 °F 81% 29.90 in 10.0 mi Calm Calm - N/A   Mostly Cloudy
10:15 PM 35.6 °F - 30.2 °F 81% 29.90 in 10.0 mi Calm Calm - N/A   Mostly Cloudy
10:35 PM 35.6 °F - 30.2 °F 81% 29.90 in 10.0 mi Calm Calm - N/A   Scattered Clouds
10:55 PM 33.8 °F - 30.2 °F 87% 29.91 in 10.0 mi Calm Calm - N/A   Clear
11:15 PM 33.8 °F - 30.2 °F 87% 29.91 in 10.0 mi Calm Calm - N/A   Clear
11:35 PM 33.8 °F - 30.2 °F 87% 29.91 in 10.0 mi Calm Calm - N/A   Clear
11:55 PM 33.8 °F - 30.2 °F 87% 29.91 in 10.0 mi Calm Calm - N/A   Clear